www.pogodaiklimat.ru

Погода и климат >> Архив погоды >> Россия >> Ямало-Ненецкий АО >> Тамбей


ПОГОДА в Тамбее

  • Прогноз погоды в Тамбее
  • Монитор погоды в Тамбее
  • Климат города

АРХИВ ПОГОДЫ в Тамбее

Время (UTC), дата Ветер
(напр.,м/с)
 
Видим.   Явления Облачность Т
(С)
Тd
(С)
f
(%)
Тe
(С)
Тes
(С)
Комфортность P
(гПа)
Po
(гПа)
Тmin
(С)
Tmax
(С)
R
(мм)
R24
(мм)
S
(см)
03 13.07 СЗ 4 н/о н/о +8.1 +2.8 +5 +5 1020.0 1019.0
06 13.07 З 6 н/о н/о +11.0 +4.5 +8 +8 1020.0 1019.1
12 13.07 З 6 н/о н/о +15.0 +5.5 +13 +13 1019.1 1018.1
15 13.07 З 6 н/о н/о +12.4 +5.8 +10 +10 1018.5 1017.6
18 13.07 З 4 н/о н/о +8.7 +6.0 +6 +6 1017.9 1016.9
21 13.07 З 6 н/о н/о +7.5 +5.1 +3 +3 1016.9 1015.9
00 14.07 З 7 н/о н/о +6.7 +5.5 +2 +2 1017.2 1016.2
03 14.07 З 6 н/о н/о +8.8 +6.6 +5 +5 1017.7 1016.7
06 14.07 З 3 н/о н/о +13.0 +7.7 +12 +12 1017.6 1016.6
09 14.07 ЮВ 4 н/о н/о +11.2 +8.4 +9 +9 1017.4 1016.4
12 14.07 ЮВ 6 н/о н/о +11.3 +8.5 +8 +8 1017.5 1016.5
15 14.07 ЮВ 3 н/о н/о +10.5 +9.1 +8 +8 1017.1 1016.1
18 14.07 СЗ 4 н/о н/о +11.4 +9.0 +9 +9 1017.3 1016.3
21 14.07 З 3 н/о н/о +7.7 +7.1 +5 +5 1017.5 1016.5
00 15.07 З 2 н/о н/о +9.3 +7.7 +8 +8 1017.9 1016.9
03 15.07 ЮВ 2 н/о н/о +12.1 +8.9 +11 +11 1017.7 1016.7
06 15.07 ЮВ 4 н/о н/о +11.1 +9.4 +9 +9 1016.8 1015.8
09 15.07 ЮВ 4 н/о н/о +10.5 +8.4 +8 +8 1016.0 1015.0
12 15.07 ЮВ 4 н/о н/о +9.8 +7.7 +7 +7 1015.3 1014.3
15 15.07 ЮВ 1 н/о н/о +11.5 +8.5 +11 +11 1014.8 1013.8
18 15.07 С 3 н/о н/о +13.9 +9.8 +13 +13 1014.6 1013.6
21 15.07 В 2 н/о н/о +10.1 +8.7 +9 +9 1014.6 1013.7
00 16.07 СВ 3 н/о н/о +10.2 +9.1 +8 +8 1014.9 1013.9
03 16.07 СВ 3 н/о н/о +10.7 +8.5 +9 +9 1014.9 1013.9
06 16.07 С 4 н/о н/о +10.9 +8.8 87 +8 1015.7 1014.7
09 16.07 СВ 4 н/о н/о +11.8 +10.7 +10 +10 1013.3 1012.3
12 16.07 СВ 3 н/о н/о +10.9 +9.0 +9 +9 1012.1 1011.2
15 16.07 С 3 н/о н/о +10.6 +10.6 +8 +8 1010.9 1009.9
18 16.07 СВ 4 н/о н/о +9.6 +10.0 +7 +7 1008.1 1007.1
21 16.07 В 6 н/о н/о +8.6 +9.2 +4 +4 1005.6 1004.6
00 17.07 ЮВ 4 н/о н/о +9.3 +9.9 +6 +6 1002.7 1001.7
03 17.07 С 1 н/о н/о +11.0 +11.6 +11 +11 1001.8 1000.9
06 17.07 С 6 н/о н/о +11.5 +12.1 +8 +8 1001.2 1000.2
09 17.07 С 8 н/о н/о +12.8 +12.5 +10 +10 1002.6 1001.6
12 17.07 С 8
{13}
н/о н/о +11.3 +11.3 +8 +8 1004.9 1003.9
15 17.07 С 6 н/о н/о +13.0 +12.2 95 +10 1007.7 1006.7
18 17.07 З 8 н/о н/о +7.1 +7.5 +2 +2 1008.3 1007.3
21 17.07 З 6 н/о н/о +4.3 +4.4 -1 -1 1009.5 1008.5
00 18.07 З 7 н/о н/о +4.5 +5.1 -2 -2 1010.4 1009.4
03 18.07 СЗ 7 н/о н/о +8.7 +6.3 +4 +4 1011.7 1010.7
06 18.07 С 5 н/о н/о +8.3 +6.8 +5 +5 1013.7 1012.7
09 18.07 С 6 н/о н/о +7.0 +5.0 +3 +3 1016.1 1015.1
12 18.07 С 5 н/о н/о +6.8 +2.7 +3 +3 1017.7 1016.7
15 18.07 В 5 н/о н/о +4.0 +2.5 -1 -1 1019.4 1018.4
18 18.07 С 3 н/о н/о +3.7 +0.2 0 0 1020.8 1019.7
21 18.07 З 2 н/о н/о +1.0 -0.2 -3 -3 1021.8 1020.8
00 19.07 З 4 н/о н/о +3.3 +1.3 -1 -1 1022.7 1021.7
03 19.07 СЗ 6 н/о н/о +5.8 +0.4 +1 +1 1023.0 1022.0
06 19.07 СЗ 8 н/о н/о +8.5 -0.8 +4 +4 1023.3 1022.3
09 19.07 СЗ 8 н/о н/о +8.7 +0.7 +5 +5 1023.6 1022.6
12 19.07 СЗ 6 н/о н/о +9.2 +0.9 56 +6 1025.0 1024.0
15 19.07 С 6 н/о н/о +8.1 +0.3 58 +4 1026.3 1025.3
18 19.07 С 4 н/о н/о +3.7 +1.1 83 -1 1027.7 1026.7
21 19.07 С 3 н/о н/о +3.9 +1.4 84 0 1027.7 1026.7

 

Местоположение метеостанции Тамбей (Ямало-Ненецкий АО, Россия): широта 71.48 долгота 71.82 высота над уровнем моря 8 м.

В архиве по умолчанию представлена погода в Тамбее за последнюю неделю. Архивные данные за месяц целиком и за предыдущие месяцы, начиная с января 2011 года, Вы можете получить, выбрав интересующий диапазон дат из раскрывающегося списка и нажав кнопку "Ввод!".


*Определитесь, кто Вы:
робот инопланетянин человек

Внимание! Время в таблицах - всемирное. Для получения местного времени необходимо прибавить поправку, которая в Тамбее равна 5 ч.

Смотрите также архив погоды в соседних городах и на ближайших метеорологических станциях:

Погода в Сеяхе (Ямало-Ненецкий АО, Россия) (148 км)
Погода в Имени Попова (Ямало-Ненецкий АО, Россия) (214 км)
Погода в Гыде (Ямало-Ненецкий АО, Россия) (248 км)
Погода в Марресаля (Ямало-Ненецкий АО, Россия) (270 км)
Погода в Антипаюте (Ямало-Ненецкий АО, Россия) (327 км)
Погода в Усть-Каре (Ненецкий АО, Россия) (357 км)
Погода на Острове Диксон (Красноярский край, Россия) (365 км)
Погода в Inari Angeli (Финляндия) (367 км)
Погода в Сопочной Карге (Красноярский край, Россия) (382 км)
Погода в Амдерме (Ненецкий АО, Россия) (419 км)

Пояснения к столбцам:

Ветер - указаны скорость ветра в м/с - средняя за 10 мин, порывы в срок и между сроками (в фигурных скобках) и направление, откуда дует ветер: С - северный, СВ - северо-восточный, В - восточный, ЮВ - юго-восточный, Ю - южный, ЮЗ - юго-западный, З - западный, СЗ - северо-западный.
Видимость - горизонтальная дальность видимости в метрах или километрах. При видимости от 1 до 10 км при отсутствии осадков обычно наблюдается дымка, при ухудшении видимости до 1 км и менее - туман. В сухую погоду видимость может ухудшаться дымом, пылью или мглою.
Явления - указаны атмосферные явления, наблюдавшиеся в срок или в последний час перед сроком; фигурными скобками обозначены явления, наблюдавшиеся между сроками (за 1-3 часа до срока); квадратными скобками обозначены град или гололедные отложения с указанием их диаметра в мм.
Облачность - указаны через наклонную черту общая и нижняя облачность в баллах и высота нижней границы облаков в метрах; квадратными скобками обозначены формы облаков: Ci - перистые, Cs - перисто-слоистые, Cc - перисто-кучевые, Ac - высококучевые, As - высокослоистые, Sc - слоисто-кучевые, Ns - слоисто-дождевые, Cu - кучевые, Cb - кучево-дождевые. Подробнее классификацию облаков см. в Атласе облаков (PDF).
T - Температура воздуха - температура, измеренная на высоте 2 м над землей.
Td - Температура точки росы - температура, при понижении до которой содержащийся в воздухе водяной пар достигнет насыщения.
f - Относительная влажность воздуха - влажноcть воздуха, измеренная на высоте 2 м над землей.
Te - Эффективная температура - температура, которую ощущает одетый по сезону человек в тени. Характеристика душности погоды. При расчете учитывается влияние влажности воздуха и скорости ветра на теплоощущения человека.
Tes - Эффективная температура на солнце - температура, которую ощущает человек, с поправкой на солнечный нагрев. Характеристика знойности погоды. Зависит от высоты солнца над горизонтом, облачности и скорости ветра. Ночью, в пасмурную погоду, а также при ветре 12 м/с и более поправка равна нулю.
P - Атмосферное давление - приведенное к уровню моря атмосферное давление.
Po - Атмосферное давление - измеренное на уровне метеостанции атмосферное давление.
Tmin - Минимальная температура - минимум температуры воздуха на высоте 2 м над землей.
Tmax - Максимальная температура - максимум температуры воздуха на высоте 2 м над землей.
R - Количество осадков - Количество выпавших осадков за период времени, мм. При наведении курсора мыши на число - период времени, за который выпало указанное количество осадков.
R24 - Количество осадков - Количество выпавших осадков за 24 часа, мм.
S - Снежный покров - Высота снежного покрова, см. При наведении курсора мыши на число - состояние снежного покрова и степень покрытия местности в баллах.